Regional Weather Roundup
Issued by NWS

Home | Current Version | Previous Version | Text Only | Print | Product List | Glossary Off
Versions: 1 2 3 4 5 6 7 8 9 10 11 12 13 14 15 16 17 18 19 20 21 22 23 24 25 26 27

000
ASUS45 KBOI 220010
RWRID

IDAHO REGIONAL WEATHER ROUNDUP
NATIONAL WEATHER SERVICE BOISE ID
500 PM MST TUE FEB 21 2017

NOTE: "FAIR" INDICATES FEW OR NO CLOUDS BELOW 12000 FEET
WITH NO SIGNIFICANT WEATHER AND/OR OBSTRUCTIONS TO VISIBILITY

IDZ012-014-220100-
SOUTHWEST IDAHO


CITY           SKY/WX    TMP DP  RH WIND       PRES   REMARKS
BOISE          PTSUNNY   52  27  38 W23G35    29.94R
CALDWELL       PTSUNNY   50  30  46 SW17G29   29.94R
MOUNTAIN HOME  PTSUNNY   51  25  37 W26G35    29.94R
$$

IDZ016-017-220100-
SOUTHCENTRAL IDAHO


CITY           SKY/WX    TMP DP  RH WIND       PRES   REMARKS
BURLEY         CLOUDY    46  29  51 SW17G26   29.96R
JEROME           N/A    N/A N/A N/A MISG      29.96R
TWIN FALLS     CLOUDY    42  29  59 SW23G36   29.96R
$$

IDZ019>023-220100-
SOUTHEAST IDAHO


CITY           SKY/WX    TMP DP  RH WIND       PRES   REMARKS
IDAHO FALLS    CLOUDY    36  33  89 S18G25    29.92F WCI  26
POCATELLO      CLOUDY    41  32  70 SW16      29.96R
REXBURG        CLOUDY    37  31  78 SW21G32   29.86S WCI  26
$$

IDZ006-010-011-018-031-032-220100-
CENTRAL IDAHO MOUNTAINS


CITY           SKY/WX    TMP DP  RH WIND       PRES   REMARKS
MCCALL         FLURRIES  34  27  75 SE14      29.85R WCI  25
HAILEY         PTSUNNY   39  25  56 SW12G17   29.91R WCI  32
STANLEY          N/A     29  25  85 N3        29.89R
SALMON         CLOUDY    43  27  52 SW14G25   29.79R
CHALLIS        CLOUDY    31  31 100 S5        29.85F WCI  26
$$

IDZ002-004-006-007-026-220100-
NORTHERN IDAHO


CITY           SKY/WX    TMP DP  RH WIND       PRES   REMARKS
LEWISTON       CLOUDY    41  33  73 VRB7      29.88R
LOWELL           N/A     38  36  92 CALM      29.84R
COEUR D`ALENE  LGT RAIN  35  34  96 W7        29.82R WCI  29
MULLAN PASS    SNOW      26  26 100 NW9G22    29.67R VSB 1/4 WCI  17
$$




USA.gov is the U.S. government's official web portal to all federal, state and local government web resources and services.